Index of /20260426/WXO-DD/model_rdps/10km/12/049
Name Last modified Size Description
Parent Directory -
20260426T12Z_MSC_RDPS_AbsoluteVorticity_IsbL-0250_RLatLon0.09_PT049H.grib2 2026-04-26 14:56 627K
20260426T12Z_MSC_RDPS_AbsoluteVorticity_IsbL-0500_RLatLon0.09_PT049H.grib2 2026-04-26 14:56 568K
20260426T12Z_MSC_RDPS_AbsoluteVorticity_IsbL-0700_RLatLon0.09_PT049H.grib2 2026-04-26 14:56 618K
20260426T12Z_MSC_RDPS_AbsoluteVorticity_IsbL-0850_RLatLon0.09_PT049H.grib2 2026-04-26 14:56 778K
20260426T12Z_MSC_RDPS_AirTemp_AGL-120m_RLatLon0.09_PT049H.grib2 2026-04-26 14:56 384K
20260426T12Z_MSC_RDPS_AirTemp_AGL-2m_RLatLon0.09_PT049H.grib2 2026-04-26 14:56 641K
20260426T12Z_MSC_RDPS_AirTemp_AGL-40m_RLatLon0.09_PT049H.grib2 2026-04-26 14:56 400K
20260426T12Z_MSC_RDPS_AirTemp_AGL-80m_RLatLon0.09_PT049H.grib2 2026-04-26 14:56 392K
20260426T12Z_MSC_RDPS_AirTemp_IsbL-0001_RLatLon0.09_PT049H.grib2 2026-04-26 14:56 270K
20260426T12Z_MSC_RDPS_AirTemp_IsbL-0005_RLatLon0.09_PT049H.grib2 2026-04-26 14:56 296K
20260426T12Z_MSC_RDPS_AirTemp_IsbL-0010_RLatLon0.09_PT049H.grib2 2026-04-26 14:56 307K
20260426T12Z_MSC_RDPS_AirTemp_IsbL-0020_RLatLon0.09_PT049H.grib2 2026-04-26 14:56 324K
20260426T12Z_MSC_RDPS_AirTemp_IsbL-0030_RLatLon0.09_PT049H.grib2 2026-04-26 14:56 342K
20260426T12Z_MSC_RDPS_AirTemp_IsbL-0050_RLatLon0.09_PT049H.grib2 2026-04-26 14:56 320K
20260426T12Z_MSC_RDPS_AirTemp_IsbL-0100_RLatLon0.09_PT049H.grib2 2026-04-26 14:56 434K
20260426T12Z_MSC_RDPS_AirTemp_IsbL-0150_RLatLon0.09_PT049H.grib2 2026-04-26 14:56 433K
20260426T12Z_MSC_RDPS_AirTemp_IsbL-0175_RLatLon0.09_PT049H.grib2 2026-04-26 14:56 420K
20260426T12Z_MSC_RDPS_AirTemp_IsbL-0200_RLatLon0.09_PT049H.grib2 2026-04-26 14:56 419K
20260426T12Z_MSC_RDPS_AirTemp_IsbL-0225_RLatLon0.09_PT049H.grib2 2026-04-26 14:56 421K
20260426T12Z_MSC_RDPS_AirTemp_IsbL-0250_RLatLon0.09_PT049H.grib2 2026-04-26 14:56 430K
20260426T12Z_MSC_RDPS_AirTemp_IsbL-0275_RLatLon0.09_PT049H.grib2 2026-04-26 14:56 411K
20260426T12Z_MSC_RDPS_AirTemp_IsbL-0300_RLatLon0.09_PT049H.grib2 2026-04-26 14:56 418K
20260426T12Z_MSC_RDPS_AirTemp_IsbL-0350_RLatLon0.09_PT049H.grib2 2026-04-26 14:56 429K
20260426T12Z_MSC_RDPS_AirTemp_IsbL-0400_RLatLon0.09_PT049H.grib2 2026-04-26 14:56 429K
20260426T12Z_MSC_RDPS_AirTemp_IsbL-0450_RLatLon0.09_PT049H.grib2 2026-04-26 14:56 435K
20260426T12Z_MSC_RDPS_AirTemp_IsbL-0500_RLatLon0.09_PT049H.grib2 2026-04-26 14:56 445K
20260426T12Z_MSC_RDPS_AirTemp_IsbL-0550_RLatLon0.09_PT049H.grib2 2026-04-26 14:56 425K
20260426T12Z_MSC_RDPS_AirTemp_IsbL-0600_RLatLon0.09_PT049H.grib2 2026-04-26 14:56 441K
20260426T12Z_MSC_RDPS_AirTemp_IsbL-0650_RLatLon0.09_PT049H.grib2 2026-04-26 14:56 454K
20260426T12Z_MSC_RDPS_AirTemp_IsbL-0700_RLatLon0.09_PT049H.grib2 2026-04-26 14:56 480K
20260426T12Z_MSC_RDPS_AirTemp_IsbL-0750_RLatLon0.09_PT049H.grib2 2026-04-26 14:56 406K
20260426T12Z_MSC_RDPS_AirTemp_IsbL-0800_RLatLon0.09_PT049H.grib2 2026-04-26 14:56 454K
20260426T12Z_MSC_RDPS_AirTemp_IsbL-0850_RLatLon0.09_PT049H.grib2 2026-04-26 14:56 507K
20260426T12Z_MSC_RDPS_AirTemp_IsbL-0875_RLatLon0.09_PT049H.grib2 2026-04-26 14:56 526K
20260426T12Z_MSC_RDPS_AirTemp_IsbL-0900_RLatLon0.09_PT049H.grib2 2026-04-26 14:56 532K
20260426T12Z_MSC_RDPS_AirTemp_IsbL-0925_RLatLon0.09_PT049H.grib2 2026-04-26 14:56 529K
20260426T12Z_MSC_RDPS_AirTemp_IsbL-0950_RLatLon0.09_PT049H.grib2 2026-04-26 14:56 530K
20260426T12Z_MSC_RDPS_AirTemp_IsbL-0970_RLatLon0.09_PT049H.grib2 2026-04-26 14:56 527K
20260426T12Z_MSC_RDPS_AirTemp_IsbL-0985_RLatLon0.09_PT049H.grib2 2026-04-26 14:56 517K
20260426T12Z_MSC_RDPS_AirTemp_IsbL-1000_RLatLon0.09_PT049H.grib2 2026-04-26 14:56 501K
20260426T12Z_MSC_RDPS_AirTemp_IsbL-1015_RLatLon0.09_PT049H.grib2 2026-04-26 14:56 498K
20260426T12Z_MSC_RDPS_Albedo_Sfc_RLatLon0.09_PT049H.grib2 2026-04-26 14:56 159K
20260426T12Z_MSC_RDPS_CAPE_Sfc_RLatLon0.09_PT049H.grib2 2026-04-26 14:56 1.7M
20260426T12Z_MSC_RDPS_CIN_Sfc_RLatLon0.09_PT049H.grib2 2026-04-26 14:56 1.1M
20260426T12Z_MSC_RDPS_CloudWater_EAtm_RLatLon0.09_PT049H.grib2 2026-04-26 14:56 219K
20260426T12Z_MSC_RDPS_ConvectivePrecip-Accum_Sfc_RLatLon0.09_PT049H.grib2 2026-04-26 14:56 1.1M
20260426T12Z_MSC_RDPS_DewPointDepression_AGL-2m_RLatLon0.09_PT049H.grib2 2026-04-26 14:56 401K
20260426T12Z_MSC_RDPS_DewPointDepression_IsbL-0001_RLatLon0.09_PT049H.grib2 2026-04-26 14:56 193
20260426T12Z_MSC_RDPS_DewPointDepression_IsbL-0005_RLatLon0.09_PT049H.grib2 2026-04-26 14:56 193
20260426T12Z_MSC_RDPS_DewPointDepression_IsbL-0010_RLatLon0.09_PT049H.grib2 2026-04-26 14:56 193
20260426T12Z_MSC_RDPS_DewPointDepression_IsbL-0020_RLatLon0.09_PT049H.grib2 2026-04-26 14:56 193
20260426T12Z_MSC_RDPS_DewPointDepression_IsbL-0030_RLatLon0.09_PT049H.grib2 2026-04-26 14:56 1.1K
20260426T12Z_MSC_RDPS_DewPointDepression_IsbL-0050_RLatLon0.09_PT049H.grib2 2026-04-26 14:56 89K
20260426T12Z_MSC_RDPS_DewPointDepression_IsbL-0100_RLatLon0.09_PT049H.grib2 2026-04-26 14:56 131K
20260426T12Z_MSC_RDPS_DewPointDepression_IsbL-0150_RLatLon0.09_PT049H.grib2 2026-04-26 14:56 150K
20260426T12Z_MSC_RDPS_DewPointDepression_IsbL-0175_RLatLon0.09_PT049H.grib2 2026-04-26 14:56 180K
20260426T12Z_MSC_RDPS_DewPointDepression_IsbL-0200_RLatLon0.09_PT049H.grib2 2026-04-26 14:56 215K
20260426T12Z_MSC_RDPS_DewPointDepression_IsbL-0225_RLatLon0.09_PT049H.grib2 2026-04-26 14:56 260K
20260426T12Z_MSC_RDPS_DewPointDepression_IsbL-0250_RLatLon0.09_PT049H.grib2 2026-04-26 14:56 299K
20260426T12Z_MSC_RDPS_DewPointDepression_IsbL-0275_RLatLon0.09_PT049H.grib2 2026-04-26 14:56 307K
20260426T12Z_MSC_RDPS_DewPointDepression_IsbL-0300_RLatLon0.09_PT049H.grib2 2026-04-26 14:56 324K
20260426T12Z_MSC_RDPS_DewPointDepression_IsbL-0350_RLatLon0.09_PT049H.grib2 2026-04-26 14:56 328K
20260426T12Z_MSC_RDPS_DewPointDepression_IsbL-0400_RLatLon0.09_PT049H.grib2 2026-04-26 14:56 340K
20260426T12Z_MSC_RDPS_DewPointDepression_IsbL-0450_RLatLon0.09_PT049H.grib2 2026-04-26 14:56 349K
20260426T12Z_MSC_RDPS_DewPointDepression_IsbL-0500_RLatLon0.09_PT049H.grib2 2026-04-26 14:56 355K
20260426T12Z_MSC_RDPS_DewPointDepression_IsbL-0550_RLatLon0.09_PT049H.grib2 2026-04-26 14:56 365K
20260426T12Z_MSC_RDPS_DewPointDepression_IsbL-0600_RLatLon0.09_PT049H.grib2 2026-04-26 14:56 374K
20260426T12Z_MSC_RDPS_DewPointDepression_IsbL-0650_RLatLon0.09_PT049H.grib2 2026-04-26 14:56 380K
20260426T12Z_MSC_RDPS_DewPointDepression_IsbL-0700_RLatLon0.09_PT049H.grib2 2026-04-26 14:56 391K
20260426T12Z_MSC_RDPS_DewPointDepression_IsbL-0750_RLatLon0.09_PT049H.grib2 2026-04-26 14:56 413K
20260426T12Z_MSC_RDPS_DewPointDepression_IsbL-0800_RLatLon0.09_PT049H.grib2 2026-04-26 14:56 446K
20260426T12Z_MSC_RDPS_DewPointDepression_IsbL-0850_RLatLon0.09_PT049H.grib2 2026-04-26 14:56 473K
20260426T12Z_MSC_RDPS_DewPointDepression_IsbL-0875_RLatLon0.09_PT049H.grib2 2026-04-26 14:56 474K
20260426T12Z_MSC_RDPS_DewPointDepression_IsbL-0900_RLatLon0.09_PT049H.grib2 2026-04-26 14:56 463K
20260426T12Z_MSC_RDPS_DewPointDepression_IsbL-0925_RLatLon0.09_PT049H.grib2 2026-04-26 14:56 451K
20260426T12Z_MSC_RDPS_DewPointDepression_IsbL-0950_RLatLon0.09_PT049H.grib2 2026-04-26 14:56 444K
20260426T12Z_MSC_RDPS_DewPointDepression_IsbL-0970_RLatLon0.09_PT049H.grib2 2026-04-26 14:56 438K
20260426T12Z_MSC_RDPS_DewPointDepression_IsbL-0985_RLatLon0.09_PT049H.grib2 2026-04-26 14:56 435K
20260426T12Z_MSC_RDPS_DewPointDepression_IsbL-1000_RLatLon0.09_PT049H.grib2 2026-04-26 14:56 433K
20260426T12Z_MSC_RDPS_DewPointDepression_IsbL-1015_RLatLon0.09_PT049H.grib2 2026-04-26 14:56 427K
20260426T12Z_MSC_RDPS_DewPoint_AGL-2m_RLatLon0.09_PT049H.grib2 2026-04-26 14:56 315K
20260426T12Z_MSC_RDPS_DownwardLongwaveRadiationFlux-Accum_Sfc_RLatLon0.09_PT049H.grib2 2026-04-26 14:56 379K
20260426T12Z_MSC_RDPS_DownwardShortwaveRadiationFlux-Accum_NTAtm_RLatLon0.09_PT049H.grib2 2026-04-26 14:56 125K
20260426T12Z_MSC_RDPS_DownwardShortwaveRadiationFlux-Accum_Sfc_RLatLon0.09_PT049H.grib2 2026-04-26 14:56 570K
20260426T12Z_MSC_RDPS_FreezingRain-Accum1h_Sfc_RLatLon0.09_PT049H.grib2 2026-04-26 14:56 47K
20260426T12Z_MSC_RDPS_FreezingRain-Accum_Sfc_RLatLon0.09_PT049H.grib2 2026-04-26 14:56 167K
20260426T12Z_MSC_RDPS_GeopotentialHeight_IsbL-0001_RLatLon0.09_PT049H.grib2 2026-04-26 14:56 244K
20260426T12Z_MSC_RDPS_GeopotentialHeight_IsbL-0005_RLatLon0.09_PT049H.grib2 2026-04-26 14:56 343K
20260426T12Z_MSC_RDPS_GeopotentialHeight_IsbL-0010_RLatLon0.09_PT049H.grib2 2026-04-26 14:56 312K
20260426T12Z_MSC_RDPS_GeopotentialHeight_IsbL-0020_RLatLon0.09_PT049H.grib2 2026-04-26 14:56 311K
20260426T12Z_MSC_RDPS_GeopotentialHeight_IsbL-0030_RLatLon0.09_PT049H.grib2 2026-04-26 14:56 313K
20260426T12Z_MSC_RDPS_GeopotentialHeight_IsbL-0050_RLatLon0.09_PT049H.grib2 2026-04-26 14:56 313K
20260426T12Z_MSC_RDPS_GeopotentialHeight_IsbL-0100_RLatLon0.09_PT049H.grib2 2026-04-26 14:56 291K
20260426T12Z_MSC_RDPS_GeopotentialHeight_IsbL-0150_RLatLon0.09_PT049H.grib2 2026-04-26 14:56 232K
20260426T12Z_MSC_RDPS_GeopotentialHeight_IsbL-0175_RLatLon0.09_PT049H.grib2 2026-04-26 14:56 266K
20260426T12Z_MSC_RDPS_GeopotentialHeight_IsbL-0200_RLatLon0.09_PT049H.grib2 2026-04-26 14:56 269K
20260426T12Z_MSC_RDPS_GeopotentialHeight_IsbL-0225_RLatLon0.09_PT049H.grib2 2026-04-26 14:56 269K
20260426T12Z_MSC_RDPS_GeopotentialHeight_IsbL-0250_RLatLon0.09_PT049H.grib2 2026-04-26 14:56 269K
20260426T12Z_MSC_RDPS_GeopotentialHeight_IsbL-0275_RLatLon0.09_PT049H.grib2 2026-04-26 14:56 269K
20260426T12Z_MSC_RDPS_GeopotentialHeight_IsbL-0300_RLatLon0.09_PT049H.grib2 2026-04-26 14:56 269K
20260426T12Z_MSC_RDPS_GeopotentialHeight_IsbL-0350_RLatLon0.09_PT049H.grib2 2026-04-26 14:56 236K
20260426T12Z_MSC_RDPS_GeopotentialHeight_IsbL-0400_RLatLon0.09_PT049H.grib2 2026-04-26 14:56 232K
20260426T12Z_MSC_RDPS_GeopotentialHeight_IsbL-0450_RLatLon0.09_PT049H.grib2 2026-04-26 14:56 300K
20260426T12Z_MSC_RDPS_GeopotentialHeight_IsbL-0500_RLatLon0.09_PT049H.grib2 2026-04-26 14:56 294K
20260426T12Z_MSC_RDPS_GeopotentialHeight_IsbL-0550_RLatLon0.09_PT049H.grib2 2026-04-26 14:56 289K
20260426T12Z_MSC_RDPS_GeopotentialHeight_IsbL-0600_RLatLon0.09_PT049H.grib2 2026-04-26 14:56 284K
20260426T12Z_MSC_RDPS_GeopotentialHeight_IsbL-0650_RLatLon0.09_PT049H.grib2 2026-04-26 14:56 255K
20260426T12Z_MSC_RDPS_GeopotentialHeight_IsbL-0700_RLatLon0.09_PT049H.grib2 2026-04-26 14:56 253K
20260426T12Z_MSC_RDPS_GeopotentialHeight_IsbL-0750_RLatLon0.09_PT049H.grib2 2026-04-26 14:56 336K
20260426T12Z_MSC_RDPS_GeopotentialHeight_IsbL-0800_RLatLon0.09_PT049H.grib2 2026-04-26 14:56 345K
20260426T12Z_MSC_RDPS_GeopotentialHeight_IsbL-0850_RLatLon0.09_PT049H.grib2 2026-04-26 14:56 356K
20260426T12Z_MSC_RDPS_GeopotentialHeight_IsbL-0875_RLatLon0.09_PT049H.grib2 2026-04-26 14:56 359K
20260426T12Z_MSC_RDPS_GeopotentialHeight_IsbL-0900_RLatLon0.09_PT049H.grib2 2026-04-26 14:56 365K
20260426T12Z_MSC_RDPS_GeopotentialHeight_IsbL-0925_RLatLon0.09_PT049H.grib2 2026-04-26 14:56 369K
20260426T12Z_MSC_RDPS_GeopotentialHeight_IsbL-0950_RLatLon0.09_PT049H.grib2 2026-04-26 14:56 372K
20260426T12Z_MSC_RDPS_GeopotentialHeight_IsbL-0970_RLatLon0.09_PT049H.grib2 2026-04-26 14:56 376K
20260426T12Z_MSC_RDPS_GeopotentialHeight_IsbL-0985_RLatLon0.09_PT049H.grib2 2026-04-26 14:56 384K
20260426T12Z_MSC_RDPS_GeopotentialHeight_IsbL-1000_RLatLon0.09_PT049H.grib2 2026-04-26 14:56 396K
20260426T12Z_MSC_RDPS_GeopotentialHeight_IsbL-1015_RLatLon0.09_PT049H.grib2 2026-04-26 14:56 412K
20260426T12Z_MSC_RDPS_Humidex_Sfc_RLatLon0.09_PT049H.grib2 2026-04-26 14:56 2.4M
20260426T12Z_MSC_RDPS_IcePellets-Accum1h_Sfc_RLatLon0.09_PT049H.grib2 2026-04-26 14:56 10K
20260426T12Z_MSC_RDPS_IcePellets-Accum_Sfc_RLatLon0.09_PT049H.grib2 2026-04-26 14:56 25K
20260426T12Z_MSC_RDPS_KIndex_Sfc_RLatLon0.09_PT049H.grib2 2026-04-26 14:56 2.5M
20260426T12Z_MSC_RDPS_LatentHeatNetFlux_Sfc_RLatLon0.09_PT049H.grib2 2026-04-26 14:56 344K
20260426T12Z_MSC_RDPS_LiftedIndex-MU-VT_IsbL-0500_RLatLon0.09_PT049H.grib2 2026-04-26 14:56 2.4M
20260426T12Z_MSC_RDPS_NetLongwaveRadiationFlux-Accum_Sfc_RLatLon0.09_PT049H.grib2 2026-04-26 14:56 555K
20260426T12Z_MSC_RDPS_NetShortwaveRadiationFlux-Accum_Sfc_RLatLon0.09_PT049H.grib2 2026-04-26 14:56 572K
20260426T12Z_MSC_RDPS_PlanetaryBoundaryLayerHeight_Sfc_RLatLon0.09_PT049H.grib2 2026-04-26 14:56 1.1M
20260426T12Z_MSC_RDPS_Precip-Accum1h_Sfc_RLatLon0.09_PT049H.grib2 2026-04-26 14:56 1.3M
20260426T12Z_MSC_RDPS_Precip-Accum_Sfc_RLatLon0.09_PT049H.grib2 2026-04-26 14:56 1.9M
20260426T12Z_MSC_RDPS_PrecipRate_Sfc_RLatLon0.09_PT049H.grib2 2026-04-26 14:56 179K
20260426T12Z_MSC_RDPS_PrecipType-Instant_Sfc_RLatLon0.09_PT049H.grib2 2026-04-26 14:56 575K
20260426T12Z_MSC_RDPS_Pressure-Trend3h_Sfc_RLatLon0.09_PT049H.grib2 2026-04-26 14:56 1.2M
20260426T12Z_MSC_RDPS_Pressure_MSL_RLatLon0.09_PT049H.grib2 2026-04-26 14:56 295K
20260426T12Z_MSC_RDPS_Pressure_PVU-1.5_RLatLon0.09_PT049H.grib2 2026-04-26 14:56 2.3M
20260426T12Z_MSC_RDPS_Pressure_PVU-1_RLatLon0.09_PT049H.grib2 2026-04-26 14:56 2.4M
20260426T12Z_MSC_RDPS_Pressure_PVU-2_RLatLon0.09_PT049H.grib2 2026-04-26 14:56 2.4M
20260426T12Z_MSC_RDPS_Pressure_Sfc_RLatLon0.09_PT049H.grib2 2026-04-26 14:56 502K
20260426T12Z_MSC_RDPS_RadiativeTemp_Sfc_RLatLon0.09_PT049H.grib2 2026-04-26 14:56 307K
20260426T12Z_MSC_RDPS_Rain-Accum1h_Sfc_RLatLon0.09_PT049H.grib2 2026-04-26 14:56 615K
20260426T12Z_MSC_RDPS_Rain-Accum_Sfc_RLatLon0.09_PT049H.grib2 2026-04-26 14:56 1.5M
20260426T12Z_MSC_RDPS_RelativeHumidity_AGL-2m_RLatLon0.09_PT049H.grib2 2026-04-26 14:56 1.0M
20260426T12Z_MSC_RDPS_RelativeHumidity_IsbL-0010_RLatLon0.09_PT049H.grib2 2026-04-26 14:56 627K
20260426T12Z_MSC_RDPS_RelativeHumidity_IsbL-0020_RLatLon0.09_PT049H.grib2 2026-04-26 14:56 652K
20260426T12Z_MSC_RDPS_RelativeHumidity_IsbL-0030_RLatLon0.09_PT049H.grib2 2026-04-26 14:56 543K
20260426T12Z_MSC_RDPS_RelativeHumidity_IsbL-0050_RLatLon0.09_PT049H.grib2 2026-04-26 14:56 328K
20260426T12Z_MSC_RDPS_RelativeHumidity_IsbL-0100_RLatLon0.09_PT049H.grib2 2026-04-26 14:56 282K
20260426T12Z_MSC_RDPS_RelativeHumidity_IsbL-0150_RLatLon0.09_PT049H.grib2 2026-04-26 14:56 415K
20260426T12Z_MSC_RDPS_RelativeHumidity_IsbL-0175_RLatLon0.09_PT049H.grib2 2026-04-26 14:56 487K
20260426T12Z_MSC_RDPS_RelativeHumidity_IsbL-0200_RLatLon0.09_PT049H.grib2 2026-04-26 14:56 553K
20260426T12Z_MSC_RDPS_RelativeHumidity_IsbL-0225_RLatLon0.09_PT049H.grib2 2026-04-26 14:56 614K
20260426T12Z_MSC_RDPS_RelativeHumidity_IsbL-0250_RLatLon0.09_PT049H.grib2 2026-04-26 14:56 686K
20260426T12Z_MSC_RDPS_RelativeHumidity_IsbL-0275_RLatLon0.09_PT049H.grib2 2026-04-26 14:56 721K
20260426T12Z_MSC_RDPS_RelativeHumidity_IsbL-0300_RLatLon0.09_PT049H.grib2 2026-04-26 14:56 766K
20260426T12Z_MSC_RDPS_RelativeHumidity_IsbL-0350_RLatLon0.09_PT049H.grib2 2026-04-26 14:56 781K
20260426T12Z_MSC_RDPS_RelativeHumidity_IsbL-0400_RLatLon0.09_PT049H.grib2 2026-04-26 14:56 793K
20260426T12Z_MSC_RDPS_RelativeHumidity_IsbL-0450_RLatLon0.09_PT049H.grib2 2026-04-26 14:56 801K
20260426T12Z_MSC_RDPS_RelativeHumidity_IsbL-0500_RLatLon0.09_PT049H.grib2 2026-04-26 14:56 808K
20260426T12Z_MSC_RDPS_RelativeHumidity_IsbL-0550_RLatLon0.09_PT049H.grib2 2026-04-26 14:56 826K
20260426T12Z_MSC_RDPS_RelativeHumidity_IsbL-0600_RLatLon0.09_PT049H.grib2 2026-04-26 14:56 840K
20260426T12Z_MSC_RDPS_RelativeHumidity_IsbL-0650_RLatLon0.09_PT049H.grib2 2026-04-26 14:56 852K
20260426T12Z_MSC_RDPS_RelativeHumidity_IsbL-0700_RLatLon0.09_PT049H.grib2 2026-04-26 14:56 876K
20260426T12Z_MSC_RDPS_RelativeHumidity_IsbL-0750_RLatLon0.09_PT049H.grib2 2026-04-26 14:56 927K
20260426T12Z_MSC_RDPS_RelativeHumidity_IsbL-0800_RLatLon0.09_PT049H.grib2 2026-04-26 14:56 1.0M
20260426T12Z_MSC_RDPS_RelativeHumidity_IsbL-0850_RLatLon0.09_PT049H.grib2 2026-04-26 14:56 1.0M
20260426T12Z_MSC_RDPS_RelativeHumidity_IsbL-0875_RLatLon0.09_PT049H.grib2 2026-04-26 14:56 1.1M
20260426T12Z_MSC_RDPS_RelativeHumidity_IsbL-0900_RLatLon0.09_PT049H.grib2 2026-04-26 14:56 1.1M
20260426T12Z_MSC_RDPS_RelativeHumidity_IsbL-0925_RLatLon0.09_PT049H.grib2 2026-04-26 14:56 1.1M
20260426T12Z_MSC_RDPS_RelativeHumidity_IsbL-0950_RLatLon0.09_PT049H.grib2 2026-04-26 14:56 1.1M
20260426T12Z_MSC_RDPS_RelativeHumidity_IsbL-0970_RLatLon0.09_PT049H.grib2 2026-04-26 14:56 1.1M
20260426T12Z_MSC_RDPS_RelativeHumidity_IsbL-0985_RLatLon0.09_PT049H.grib2 2026-04-26 14:56 1.1M
20260426T12Z_MSC_RDPS_RelativeHumidity_IsbL-1000_RLatLon0.09_PT049H.grib2 2026-04-26 14:56 1.0M
20260426T12Z_MSC_RDPS_RelativeHumidity_IsbL-1015_RLatLon0.09_PT049H.grib2 2026-04-26 14:56 1.0M
20260426T12Z_MSC_RDPS_Runoff-Accum_Sfc_RLatLon0.09_PT049H.grib2 2026-04-26 14:56 48K
20260426T12Z_MSC_RDPS_SWEATIndex_Sfc_RLatLon0.09_PT049H.grib2 2026-04-26 14:56 2.4M
20260426T12Z_MSC_RDPS_SeeingIndex_EAtm_RLatLon0.09_PT049H.grib2 2026-04-26 14:56 1.0M
20260426T12Z_MSC_RDPS_SensibleHeatNetFlux_Sfc_RLatLon0.09_PT049H.grib2 2026-04-26 14:56 326K
20260426T12Z_MSC_RDPS_ShowalterIndex_IsbL-0500_RLatLon0.09_PT049H.grib2 2026-04-26 14:56 2.6M
20260426T12Z_MSC_RDPS_SkyTransparencyIndex_EAtm_RLatLon0.09_PT049H.grib2 2026-04-26 14:56 697K
20260426T12Z_MSC_RDPS_Snow-Accum1h_Sfc_RLatLon0.09_PT049H.grib2 2026-04-26 14:56 482K
20260426T12Z_MSC_RDPS_Snow-Accum_Sfc_RLatLon0.09_PT049H.grib2 2026-04-26 14:56 809K
20260426T12Z_MSC_RDPS_SnowDensity_Sfc_RLatLon0.09_PT049H.grib2 2026-04-26 14:56 186K
20260426T12Z_MSC_RDPS_SnowDepth_Sfc_RLatLon0.09_PT049H.grib2 2026-04-26 14:56 720K
20260426T12Z_MSC_RDPS_SoilTemp_DBS-0to10cm_RLatLon0.09_PT049H.grib2 2026-04-26 14:56 233K
20260426T12Z_MSC_RDPS_SoilTemp_Sfc_RLatLon0.09_PT049H.grib2 2026-04-26 14:56 274K
20260426T12Z_MSC_RDPS_SoilVolumetricIceContent_Sfc_RLatLon0.09_PT049H.grib2 2026-04-26 14:56 170K
20260426T12Z_MSC_RDPS_SoilVolumetricWaterContent_DBS-0to10cm_RLatLon0.09_PT049H.grib2 2026-04-26 14:56 261K
20260426T12Z_MSC_RDPS_SoilVolumetricWaterContent_DBS-0to1cm_RLatLon0.09_PT049H.grib2 2026-04-26 14:56 340K
20260426T12Z_MSC_RDPS_SpecificHumidity_AGL-120m_RLatLon0.09_PT049H.grib2 2026-04-26 14:56 490K
20260426T12Z_MSC_RDPS_SpecificHumidity_AGL-2m_RLatLon0.09_PT049H.grib2 2026-04-26 14:56 661K
20260426T12Z_MSC_RDPS_SpecificHumidity_AGL-40m_RLatLon0.09_PT049H.grib2 2026-04-26 14:56 497K
20260426T12Z_MSC_RDPS_SpecificHumidity_AGL-80m_RLatLon0.09_PT049H.grib2 2026-04-26 14:56 493K
20260426T12Z_MSC_RDPS_SpecificHumidity_IsbL-0001_RLatLon0.09_PT049H.grib2 2026-04-26 14:56 341K
20260426T12Z_MSC_RDPS_SpecificHumidity_IsbL-0005_RLatLon0.09_PT049H.grib2 2026-04-26 14:56 355K
20260426T12Z_MSC_RDPS_SpecificHumidity_IsbL-0010_RLatLon0.09_PT049H.grib2 2026-04-26 14:56 397K
20260426T12Z_MSC_RDPS_SpecificHumidity_IsbL-0020_RLatLon0.09_PT049H.grib2 2026-04-26 14:56 385K
20260426T12Z_MSC_RDPS_SpecificHumidity_IsbL-0030_RLatLon0.09_PT049H.grib2 2026-04-26 14:56 475K
20260426T12Z_MSC_RDPS_SpecificHumidity_IsbL-0050_RLatLon0.09_PT049H.grib2 2026-04-26 14:56 464K
20260426T12Z_MSC_RDPS_SpecificHumidity_IsbL-0100_RLatLon0.09_PT049H.grib2 2026-04-26 14:56 425K
20260426T12Z_MSC_RDPS_SpecificHumidity_IsbL-0150_RLatLon0.09_PT049H.grib2 2026-04-26 14:56 357K
20260426T12Z_MSC_RDPS_SpecificHumidity_IsbL-0175_RLatLon0.09_PT049H.grib2 2026-04-26 14:56 461K
20260426T12Z_MSC_RDPS_SpecificHumidity_IsbL-0200_RLatLon0.09_PT049H.grib2 2026-04-26 14:56 453K
20260426T12Z_MSC_RDPS_SpecificHumidity_IsbL-0225_RLatLon0.09_PT049H.grib2 2026-04-26 14:56 449K
20260426T12Z_MSC_RDPS_SpecificHumidity_IsbL-0250_RLatLon0.09_PT049H.grib2 2026-04-26 14:56 553K
20260426T12Z_MSC_RDPS_SpecificHumidity_IsbL-0275_RLatLon0.09_PT049H.grib2 2026-04-26 14:56 472K
20260426T12Z_MSC_RDPS_SpecificHumidity_IsbL-0300_RLatLon0.09_PT049H.grib2 2026-04-26 14:56 545K
20260426T12Z_MSC_RDPS_SpecificHumidity_IsbL-0350_RLatLon0.09_PT049H.grib2 2026-04-26 14:56 533K
20260426T12Z_MSC_RDPS_SpecificHumidity_IsbL-0400_RLatLon0.09_PT049H.grib2 2026-04-26 14:56 515K
20260426T12Z_MSC_RDPS_SpecificHumidity_IsbL-0450_RLatLon0.09_PT049H.grib2 2026-04-26 14:56 568K
20260426T12Z_MSC_RDPS_SpecificHumidity_IsbL-0500_RLatLon0.09_PT049H.grib2 2026-04-26 14:56 506K
20260426T12Z_MSC_RDPS_SpecificHumidity_IsbL-0550_RLatLon0.09_PT049H.grib2 2026-04-26 14:56 562K
20260426T12Z_MSC_RDPS_SpecificHumidity_IsbL-0600_RLatLon0.09_PT049H.grib2 2026-04-26 14:56 628K
20260426T12Z_MSC_RDPS_SpecificHumidity_IsbL-0650_RLatLon0.09_PT049H.grib2 2026-04-26 14:56 545K
20260426T12Z_MSC_RDPS_SpecificHumidity_IsbL-0700_RLatLon0.09_PT049H.grib2 2026-04-26 14:56 588K
20260426T12Z_MSC_RDPS_SpecificHumidity_IsbL-0750_RLatLon0.09_PT049H.grib2 2026-04-26 14:56 643K
20260426T12Z_MSC_RDPS_SpecificHumidity_IsbL-0800_RLatLon0.09_PT049H.grib2 2026-04-26 14:56 724K
20260426T12Z_MSC_RDPS_SpecificHumidity_IsbL-0850_RLatLon0.09_PT049H.grib2 2026-04-26 14:56 798K
20260426T12Z_MSC_RDPS_SpecificHumidity_IsbL-0875_RLatLon0.09_PT049H.grib2 2026-04-26 14:56 824K
20260426T12Z_MSC_RDPS_SpecificHumidity_IsbL-0900_RLatLon0.09_PT049H.grib2 2026-04-26 14:56 834K
20260426T12Z_MSC_RDPS_SpecificHumidity_IsbL-0925_RLatLon0.09_PT049H.grib2 2026-04-26 14:56 834K
20260426T12Z_MSC_RDPS_SpecificHumidity_IsbL-0950_RLatLon0.09_PT049H.grib2 2026-04-26 14:56 834K
20260426T12Z_MSC_RDPS_SpecificHumidity_IsbL-0970_RLatLon0.09_PT049H.grib2 2026-04-26 14:56 828K
20260426T12Z_MSC_RDPS_SpecificHumidity_IsbL-0985_RLatLon0.09_PT049H.grib2 2026-04-26 14:56 684K
20260426T12Z_MSC_RDPS_SpecificHumidity_IsbL-1000_RLatLon0.09_PT049H.grib2 2026-04-26 14:56 680K
20260426T12Z_MSC_RDPS_SpecificHumidity_IsbL-1015_RLatLon0.09_PT049H.grib2 2026-04-26 14:56 673K
20260426T12Z_MSC_RDPS_SpecificHumidity_Sfc_RLatLon0.09_PT049H.grib2 2026-04-26 14:56 297K
20260426T12Z_MSC_RDPS_StormRelativeHelicity_EtaL-10000_RLatLon0.09_PT049H.grib2 2026-04-26 14:56 1.1M
20260426T12Z_MSC_RDPS_StormSeverityIndex_EtaL-10000_RLatLon0.09_PT049H.grib2 2026-04-26 14:56 1.2M
20260426T12Z_MSC_RDPS_Thickness_IsbL-0850to0700_RLatLon0.09_PT049H.grib2 2026-04-26 14:56 176K
20260426T12Z_MSC_RDPS_Thickness_IsbL-1000to0500_RLatLon0.09_PT049H.grib2 2026-04-26 14:56 199K
20260426T12Z_MSC_RDPS_Thickness_IsbL-1000to0850_RLatLon0.09_PT049H.grib2 2026-04-26 14:56 263K
20260426T12Z_MSC_RDPS_TotalCloudCover_Sfc_RLatLon0.09_PT049H.grib2 2026-04-26 14:56 668K
20260426T12Z_MSC_RDPS_TotalTotalsIndex_Sfc_RLatLon0.09_PT049H.grib2 2026-04-26 14:56 2.4M
20260426T12Z_MSC_RDPS_UVIndex-ClearSky_Sfc_RLatLon0.09_PT049H.grib2 2026-04-26 14:56 189K
20260426T12Z_MSC_RDPS_UVIndex_Sfc_RLatLon0.09_PT049H.grib2 2026-04-26 14:56 407K
20260426T12Z_MSC_RDPS_UpwardLongwaveRadiationFlux_NTAtm_RLatLon0.09_PT049H.grib2 2026-04-26 14:56 490K
20260426T12Z_MSC_RDPS_UpwardShortwaveRadiationFlux_NTAtm_RLatLon0.09_PT049H.grib2 2026-04-26 14:56 348K
20260426T12Z_MSC_RDPS_VerticalVelocity_IsbL-0250_RLatLon0.09_PT049H.grib2 2026-04-26 14:56 556K
20260426T12Z_MSC_RDPS_VerticalVelocity_IsbL-0500_RLatLon0.09_PT049H.grib2 2026-04-26 14:56 549K
20260426T12Z_MSC_RDPS_VerticalVelocity_IsbL-0700_RLatLon0.09_PT049H.grib2 2026-04-26 14:56 591K
20260426T12Z_MSC_RDPS_VerticalVelocity_IsbL-0850_RLatLon0.09_PT049H.grib2 2026-04-26 14:56 690K
20260426T12Z_MSC_RDPS_VerticalWindShear_EtaL-6500_RLatLon0.09_PT049H.grib2 2026-04-26 14:56 1.2M
20260426T12Z_MSC_RDPS_WindChill_Sfc_RLatLon0.09_PT049H.grib2 2026-04-26 14:56 1.2M
20260426T12Z_MSC_RDPS_WindDir_AGL-10m_RLatLon0.09_PT049H.grib2 2026-04-26 14:56 1.0M
20260426T12Z_MSC_RDPS_WindDir_AGL-120m_RLatLon0.09_PT049H.grib2 2026-04-26 14:56 613K
20260426T12Z_MSC_RDPS_WindDir_AGL-40m_RLatLon0.09_PT049H.grib2 2026-04-26 14:56 644K
20260426T12Z_MSC_RDPS_WindDir_AGL-80m_RLatLon0.09_PT049H.grib2 2026-04-26 14:56 625K
20260426T12Z_MSC_RDPS_WindDir_IsbL-0001_RLatLon0.09_PT049H.grib2 2026-04-26 14:56 307K
20260426T12Z_MSC_RDPS_WindDir_IsbL-0005_RLatLon0.09_PT049H.grib2 2026-04-26 14:56 365K
20260426T12Z_MSC_RDPS_WindDir_IsbL-0010_RLatLon0.09_PT049H.grib2 2026-04-26 14:56 368K
20260426T12Z_MSC_RDPS_WindDir_IsbL-0020_RLatLon0.09_PT049H.grib2 2026-04-26 14:56 404K
20260426T12Z_MSC_RDPS_WindDir_IsbL-0030_RLatLon0.09_PT049H.grib2 2026-04-26 14:56 414K
20260426T12Z_MSC_RDPS_WindDir_IsbL-0050_RLatLon0.09_PT049H.grib2 2026-04-26 14:56 429K
20260426T12Z_MSC_RDPS_WindDir_IsbL-0100_RLatLon0.09_PT049H.grib2 2026-04-26 14:56 418K
20260426T12Z_MSC_RDPS_WindDir_IsbL-0150_RLatLon0.09_PT049H.grib2 2026-04-26 14:56 414K
20260426T12Z_MSC_RDPS_WindDir_IsbL-0175_RLatLon0.09_PT049H.grib2 2026-04-26 14:56 429K
20260426T12Z_MSC_RDPS_WindDir_IsbL-0200_RLatLon0.09_PT049H.grib2 2026-04-26 14:56 437K
20260426T12Z_MSC_RDPS_WindDir_IsbL-0225_RLatLon0.09_PT049H.grib2 2026-04-26 14:56 441K
20260426T12Z_MSC_RDPS_WindDir_IsbL-0250_RLatLon0.09_PT049H.grib2 2026-04-26 14:56 443K
20260426T12Z_MSC_RDPS_WindDir_IsbL-0275_RLatLon0.09_PT049H.grib2 2026-04-26 14:56 467K
20260426T12Z_MSC_RDPS_WindDir_IsbL-0300_RLatLon0.09_PT049H.grib2 2026-04-26 14:56 467K
20260426T12Z_MSC_RDPS_WindDir_IsbL-0350_RLatLon0.09_PT049H.grib2 2026-04-26 14:56 490K
20260426T12Z_MSC_RDPS_WindDir_IsbL-0400_RLatLon0.09_PT049H.grib2 2026-04-26 14:56 514K
20260426T12Z_MSC_RDPS_WindDir_IsbL-0450_RLatLon0.09_PT049H.grib2 2026-04-26 14:56 527K
20260426T12Z_MSC_RDPS_WindDir_IsbL-0500_RLatLon0.09_PT049H.grib2 2026-04-26 14:56 541K
20260426T12Z_MSC_RDPS_WindDir_IsbL-0550_RLatLon0.09_PT049H.grib2 2026-04-26 14:56 551K
20260426T12Z_MSC_RDPS_WindDir_IsbL-0600_RLatLon0.09_PT049H.grib2 2026-04-26 14:56 574K
20260426T12Z_MSC_RDPS_WindDir_IsbL-0650_RLatLon0.09_PT049H.grib2 2026-04-26 14:56 617K
20260426T12Z_MSC_RDPS_WindDir_IsbL-0700_RLatLon0.09_PT049H.grib2 2026-04-26 14:56 658K
20260426T12Z_MSC_RDPS_WindDir_IsbL-0750_RLatLon0.09_PT049H.grib2 2026-04-26 14:56 707K
20260426T12Z_MSC_RDPS_WindDir_IsbL-0800_RLatLon0.09_PT049H.grib2 2026-04-26 14:56 777K
20260426T12Z_MSC_RDPS_WindDir_IsbL-0850_RLatLon0.09_PT049H.grib2 2026-04-26 14:56 859K
20260426T12Z_MSC_RDPS_WindDir_IsbL-0875_RLatLon0.09_PT049H.grib2 2026-04-26 14:56 884K
20260426T12Z_MSC_RDPS_WindDir_IsbL-0900_RLatLon0.09_PT049H.grib2 2026-04-26 14:56 904K
20260426T12Z_MSC_RDPS_WindDir_IsbL-0925_RLatLon0.09_PT049H.grib2 2026-04-26 14:56 916K
20260426T12Z_MSC_RDPS_WindDir_IsbL-0950_RLatLon0.09_PT049H.grib2 2026-04-26 14:56 919K
20260426T12Z_MSC_RDPS_WindDir_IsbL-0970_RLatLon0.09_PT049H.grib2 2026-04-26 14:56 926K
20260426T12Z_MSC_RDPS_WindDir_IsbL-0985_RLatLon0.09_PT049H.grib2 2026-04-26 14:56 937K
20260426T12Z_MSC_RDPS_WindDir_IsbL-1000_RLatLon0.09_PT049H.grib2 2026-04-26 14:56 953K
20260426T12Z_MSC_RDPS_WindDir_IsbL-1015_RLatLon0.09_PT049H.grib2 2026-04-26 14:56 972K
20260426T12Z_MSC_RDPS_WindGust-Max_AGL-10m_RLatLon0.09_PT049H.grib2 2026-04-26 14:56 954K
20260426T12Z_MSC_RDPS_WindGust-Min_AGL-10m_RLatLon0.09_PT049H.grib2 2026-04-26 14:56 1.0M
20260426T12Z_MSC_RDPS_WindGust_AGL-10m_RLatLon0.09_PT049H.grib2 2026-04-26 14:56 1.0M
20260426T12Z_MSC_RDPS_WindSpeed_AGL-10m_RLatLon0.09_PT049H.grib2 2026-04-26 14:56 853K
20260426T12Z_MSC_RDPS_WindSpeed_AGL-120m_RLatLon0.09_PT049H.grib2 2026-04-26 14:56 548K
20260426T12Z_MSC_RDPS_WindSpeed_AGL-40m_RLatLon0.09_PT049H.grib2 2026-04-26 14:56 552K
20260426T12Z_MSC_RDPS_WindSpeed_AGL-80m_RLatLon0.09_PT049H.grib2 2026-04-26 14:56 549K
20260426T12Z_MSC_RDPS_WindSpeed_IsbL-0001_RLatLon0.09_PT049H.grib2 2026-04-26 14:56 336K
20260426T12Z_MSC_RDPS_WindSpeed_IsbL-0005_RLatLon0.09_PT049H.grib2 2026-04-26 14:56 299K
20260426T12Z_MSC_RDPS_WindSpeed_IsbL-0010_RLatLon0.09_PT049H.grib2 2026-04-26 14:56 405K
20260426T12Z_MSC_RDPS_WindSpeed_IsbL-0020_RLatLon0.09_PT049H.grib2 2026-04-26 14:56 330K
20260426T12Z_MSC_RDPS_WindSpeed_IsbL-0030_RLatLon0.09_PT049H.grib2 2026-04-26 14:56 324K
20260426T12Z_MSC_RDPS_WindSpeed_IsbL-0050_RLatLon0.09_PT049H.grib2 2026-04-26 14:56 357K
20260426T12Z_MSC_RDPS_WindSpeed_IsbL-0100_RLatLon0.09_PT049H.grib2 2026-04-26 14:56 486K
20260426T12Z_MSC_RDPS_WindSpeed_IsbL-0150_RLatLon0.09_PT049H.grib2 2026-04-26 14:56 388K
20260426T12Z_MSC_RDPS_WindSpeed_IsbL-0175_RLatLon0.09_PT049H.grib2 2026-04-26 14:56 436K
20260426T12Z_MSC_RDPS_WindSpeed_IsbL-0200_RLatLon0.09_PT049H.grib2 2026-04-26 14:56 448K
20260426T12Z_MSC_RDPS_WindSpeed_IsbL-0225_RLatLon0.09_PT049H.grib2 2026-04-26 14:56 453K
20260426T12Z_MSC_RDPS_WindSpeed_IsbL-0250_RLatLon0.09_PT049H.grib2 2026-04-26 14:56 458K
20260426T12Z_MSC_RDPS_WindSpeed_IsbL-0275_RLatLon0.09_PT049H.grib2 2026-04-26 14:56 477K
20260426T12Z_MSC_RDPS_WindSpeed_IsbL-0300_RLatLon0.09_PT049H.grib2 2026-04-26 14:56 474K
20260426T12Z_MSC_RDPS_WindSpeed_IsbL-0350_RLatLon0.09_PT049H.grib2 2026-04-26 14:56 468K
20260426T12Z_MSC_RDPS_WindSpeed_IsbL-0400_RLatLon0.09_PT049H.grib2 2026-04-26 14:56 472K
20260426T12Z_MSC_RDPS_WindSpeed_IsbL-0450_RLatLon0.09_PT049H.grib2 2026-04-26 14:56 468K
20260426T12Z_MSC_RDPS_WindSpeed_IsbL-0500_RLatLon0.09_PT049H.grib2 2026-04-26 14:56 583K
20260426T12Z_MSC_RDPS_WindSpeed_IsbL-0550_RLatLon0.09_PT049H.grib2 2026-04-26 14:56 582K
20260426T12Z_MSC_RDPS_WindSpeed_IsbL-0600_RLatLon0.09_PT049H.grib2 2026-04-26 14:56 590K
20260426T12Z_MSC_RDPS_WindSpeed_IsbL-0650_RLatLon0.09_PT049H.grib2 2026-04-26 14:56 653K
20260426T12Z_MSC_RDPS_WindSpeed_IsbL-0700_RLatLon0.09_PT049H.grib2 2026-04-26 14:56 675K
20260426T12Z_MSC_RDPS_WindSpeed_IsbL-0750_RLatLon0.09_PT049H.grib2 2026-04-26 14:56 703K
20260426T12Z_MSC_RDPS_WindSpeed_IsbL-0800_RLatLon0.09_PT049H.grib2 2026-04-26 14:56 752K
20260426T12Z_MSC_RDPS_WindSpeed_IsbL-0850_RLatLon0.09_PT049H.grib2 2026-04-26 14:56 766K
20260426T12Z_MSC_RDPS_WindSpeed_IsbL-0875_RLatLon0.09_PT049H.grib2 2026-04-26 14:56 790K
20260426T12Z_MSC_RDPS_WindSpeed_IsbL-0900_RLatLon0.09_PT049H.grib2 2026-04-26 14:56 806K
20260426T12Z_MSC_RDPS_WindSpeed_IsbL-0925_RLatLon0.09_PT049H.grib2 2026-04-26 14:56 865K
20260426T12Z_MSC_RDPS_WindSpeed_IsbL-0950_RLatLon0.09_PT049H.grib2 2026-04-26 14:56 868K
20260426T12Z_MSC_RDPS_WindSpeed_IsbL-0970_RLatLon0.09_PT049H.grib2 2026-04-26 14:56 865K
20260426T12Z_MSC_RDPS_WindSpeed_IsbL-0985_RLatLon0.09_PT049H.grib2 2026-04-26 14:56 863K
20260426T12Z_MSC_RDPS_WindSpeed_IsbL-1000_RLatLon0.09_PT049H.grib2 2026-04-26 14:56 860K
20260426T12Z_MSC_RDPS_WindSpeed_IsbL-1015_RLatLon0.09_PT049H.grib2 2026-04-26 14:56 852K
20260426T12Z_MSC_RDPS_WindU_AGL-10m_RLatLon0.09_PT049H.grib2 2026-04-26 14:56 439K
20260426T12Z_MSC_RDPS_WindU_AGL-120m_RLatLon0.09_PT049H.grib2 2026-04-26 14:56 425K
20260426T12Z_MSC_RDPS_WindU_AGL-40m_RLatLon0.09_PT049H.grib2 2026-04-26 14:56 547K
20260426T12Z_MSC_RDPS_WindU_AGL-80m_RLatLon0.09_PT049H.grib2 2026-04-26 14:56 427K
20260426T12Z_MSC_RDPS_WindU_IsbL-0001_RLatLon0.09_PT049H.grib2 2026-04-26 14:56 296K
20260426T12Z_MSC_RDPS_WindU_IsbL-0005_RLatLon0.09_PT049H.grib2 2026-04-26 14:56 334K
20260426T12Z_MSC_RDPS_WindU_IsbL-0010_RLatLon0.09_PT049H.grib2 2026-04-26 14:56 302K
20260426T12Z_MSC_RDPS_WindU_IsbL-0020_RLatLon0.09_PT049H.grib2 2026-04-26 14:56 359K
20260426T12Z_MSC_RDPS_WindU_IsbL-0030_RLatLon0.09_PT049H.grib2 2026-04-26 14:56 355K
20260426T12Z_MSC_RDPS_WindU_IsbL-0050_RLatLon0.09_PT049H.grib2 2026-04-26 14:56 384K
20260426T12Z_MSC_RDPS_WindU_IsbL-0100_RLatLon0.09_PT049H.grib2 2026-04-26 14:56 343K
20260426T12Z_MSC_RDPS_WindU_IsbL-0150_RLatLon0.09_PT049H.grib2 2026-04-26 14:56 404K
20260426T12Z_MSC_RDPS_WindU_IsbL-0175_RLatLon0.09_PT049H.grib2 2026-04-26 14:56 429K
20260426T12Z_MSC_RDPS_WindU_IsbL-0200_RLatLon0.09_PT049H.grib2 2026-04-26 14:56 341K
20260426T12Z_MSC_RDPS_WindU_IsbL-0225_RLatLon0.09_PT049H.grib2 2026-04-26 14:56 346K
20260426T12Z_MSC_RDPS_WindU_IsbL-0250_RLatLon0.09_PT049H.grib2 2026-04-26 14:56 448K
20260426T12Z_MSC_RDPS_WindU_IsbL-0275_RLatLon0.09_PT049H.grib2 2026-04-26 14:56 465K
20260426T12Z_MSC_RDPS_WindU_IsbL-0300_RLatLon0.09_PT049H.grib2 2026-04-26 14:56 461K
20260426T12Z_MSC_RDPS_WindU_IsbL-0350_RLatLon0.09_PT049H.grib2 2026-04-26 14:56 471K
20260426T12Z_MSC_RDPS_WindU_IsbL-0400_RLatLon0.09_PT049H.grib2 2026-04-26 14:56 474K
20260426T12Z_MSC_RDPS_WindU_IsbL-0450_RLatLon0.09_PT049H.grib2 2026-04-26 14:56 472K
20260426T12Z_MSC_RDPS_WindU_IsbL-0500_RLatLon0.09_PT049H.grib2 2026-04-26 14:56 470K
20260426T12Z_MSC_RDPS_WindU_IsbL-0550_RLatLon0.09_PT049H.grib2 2026-04-26 14:56 470K
20260426T12Z_MSC_RDPS_WindU_IsbL-0600_RLatLon0.09_PT049H.grib2 2026-04-26 14:56 460K
20260426T12Z_MSC_RDPS_WindU_IsbL-0650_RLatLon0.09_PT049H.grib2 2026-04-26 14:56 479K
20260426T12Z_MSC_RDPS_WindU_IsbL-0700_RLatLon0.09_PT049H.grib2 2026-04-26 14:56 499K
20260426T12Z_MSC_RDPS_WindU_IsbL-0750_RLatLon0.09_PT049H.grib2 2026-04-26 14:56 524K
20260426T12Z_MSC_RDPS_WindU_IsbL-0800_RLatLon0.09_PT049H.grib2 2026-04-26 14:56 568K
20260426T12Z_MSC_RDPS_WindU_IsbL-0850_RLatLon0.09_PT049H.grib2 2026-04-26 14:56 623K
20260426T12Z_MSC_RDPS_WindU_IsbL-0875_RLatLon0.09_PT049H.grib2 2026-04-26 14:56 650K
20260426T12Z_MSC_RDPS_WindU_IsbL-0900_RLatLon0.09_PT049H.grib2 2026-04-26 14:56 661K
20260426T12Z_MSC_RDPS_WindU_IsbL-0925_RLatLon0.09_PT049H.grib2 2026-04-26 14:56 662K
20260426T12Z_MSC_RDPS_WindU_IsbL-0950_RLatLon0.09_PT049H.grib2 2026-04-26 14:56 661K
20260426T12Z_MSC_RDPS_WindU_IsbL-0970_RLatLon0.09_PT049H.grib2 2026-04-26 14:56 660K
20260426T12Z_MSC_RDPS_WindU_IsbL-0985_RLatLon0.09_PT049H.grib2 2026-04-26 14:56 659K
20260426T12Z_MSC_RDPS_WindU_IsbL-1000_RLatLon0.09_PT049H.grib2 2026-04-26 14:56 797K
20260426T12Z_MSC_RDPS_WindU_IsbL-1015_RLatLon0.09_PT049H.grib2 2026-04-26 14:56 791K
20260426T12Z_MSC_RDPS_WindV_AGL-10m_RLatLon0.09_PT049H.grib2 2026-04-26 14:56 437K
20260426T12Z_MSC_RDPS_WindV_AGL-120m_RLatLon0.09_PT049H.grib2 2026-04-26 14:56 541K
20260426T12Z_MSC_RDPS_WindV_AGL-40m_RLatLon0.09_PT049H.grib2 2026-04-26 14:56 544K
20260426T12Z_MSC_RDPS_WindV_AGL-80m_RLatLon0.09_PT049H.grib2 2026-04-26 14:56 542K
20260426T12Z_MSC_RDPS_WindV_IsbL-0001_RLatLon0.09_PT049H.grib2 2026-04-26 14:56 246K
20260426T12Z_MSC_RDPS_WindV_IsbL-0005_RLatLon0.09_PT049H.grib2 2026-04-26 14:56 333K
20260426T12Z_MSC_RDPS_WindV_IsbL-0010_RLatLon0.09_PT049H.grib2 2026-04-26 14:56 303K
20260426T12Z_MSC_RDPS_WindV_IsbL-0020_RLatLon0.09_PT049H.grib2 2026-04-26 14:56 323K
20260426T12Z_MSC_RDPS_WindV_IsbL-0030_RLatLon0.09_PT049H.grib2 2026-04-26 14:56 320K
20260426T12Z_MSC_RDPS_WindV_IsbL-0050_RLatLon0.09_PT049H.grib2 2026-04-26 14:56 351K
20260426T12Z_MSC_RDPS_WindV_IsbL-0100_RLatLon0.09_PT049H.grib2 2026-04-26 14:56 339K
20260426T12Z_MSC_RDPS_WindV_IsbL-0150_RLatLon0.09_PT049H.grib2 2026-04-26 14:56 403K
20260426T12Z_MSC_RDPS_WindV_IsbL-0175_RLatLon0.09_PT049H.grib2 2026-04-26 14:56 427K
20260426T12Z_MSC_RDPS_WindV_IsbL-0200_RLatLon0.09_PT049H.grib2 2026-04-26 14:56 440K
20260426T12Z_MSC_RDPS_WindV_IsbL-0225_RLatLon0.09_PT049H.grib2 2026-04-26 14:56 344K
20260426T12Z_MSC_RDPS_WindV_IsbL-0250_RLatLon0.09_PT049H.grib2 2026-04-26 14:56 346K
20260426T12Z_MSC_RDPS_WindV_IsbL-0275_RLatLon0.09_PT049H.grib2 2026-04-26 14:56 361K
20260426T12Z_MSC_RDPS_WindV_IsbL-0300_RLatLon0.09_PT049H.grib2 2026-04-26 14:56 359K
20260426T12Z_MSC_RDPS_WindV_IsbL-0350_RLatLon0.09_PT049H.grib2 2026-04-26 14:56 365K
20260426T12Z_MSC_RDPS_WindV_IsbL-0400_RLatLon0.09_PT049H.grib2 2026-04-26 14:56 367K
20260426T12Z_MSC_RDPS_WindV_IsbL-0450_RLatLon0.09_PT049H.grib2 2026-04-26 14:56 469K
20260426T12Z_MSC_RDPS_WindV_IsbL-0500_RLatLon0.09_PT049H.grib2 2026-04-26 14:56 467K
20260426T12Z_MSC_RDPS_WindV_IsbL-0550_RLatLon0.09_PT049H.grib2 2026-04-26 14:56 466K
20260426T12Z_MSC_RDPS_WindV_IsbL-0600_RLatLon0.09_PT049H.grib2 2026-04-26 14:56 474K
20260426T12Z_MSC_RDPS_WindV_IsbL-0650_RLatLon0.09_PT049H.grib2 2026-04-26 14:56 492K
20260426T12Z_MSC_RDPS_WindV_IsbL-0700_RLatLon0.09_PT049H.grib2 2026-04-26 14:56 495K
20260426T12Z_MSC_RDPS_WindV_IsbL-0750_RLatLon0.09_PT049H.grib2 2026-04-26 14:56 520K
20260426T12Z_MSC_RDPS_WindV_IsbL-0800_RLatLon0.09_PT049H.grib2 2026-04-26 14:56 563K
20260426T12Z_MSC_RDPS_WindV_IsbL-0850_RLatLon0.09_PT049H.grib2 2026-04-26 14:56 617K
20260426T12Z_MSC_RDPS_WindV_IsbL-0875_RLatLon0.09_PT049H.grib2 2026-04-26 14:56 638K
20260426T12Z_MSC_RDPS_WindV_IsbL-0900_RLatLon0.09_PT049H.grib2 2026-04-26 14:56 653K
20260426T12Z_MSC_RDPS_WindV_IsbL-0925_RLatLon0.09_PT049H.grib2 2026-04-26 14:56 661K
20260426T12Z_MSC_RDPS_WindV_IsbL-0950_RLatLon0.09_PT049H.grib2 2026-04-26 14:56 662K
20260426T12Z_MSC_RDPS_WindV_IsbL-0970_RLatLon0.09_PT049H.grib2 2026-04-26 14:56 801K
20260426T12Z_MSC_RDPS_WindV_IsbL-0985_RLatLon0.09_PT049H.grib2 2026-04-26 14:56 797K
20260426T12Z_MSC_RDPS_WindV_IsbL-1000_RLatLon0.09_PT049H.grib2 2026-04-26 14:56 794K
20260426T12Z_MSC_RDPS_WindV_IsbL-1015_RLatLon0.09_PT049H.grib2 2026-04-26 14:56 835K